Location: ??????
(41.3164°N, 22.6615°E)
Time: 00:24:24
(UTC+00:00)

Cosmos 1892 Rocket - Pass Details

Date: 16 October 2021
Orbit: 605 x 634 km, 82.5° (Epoch: 02 December)

Event Time Altitude Azimuth Distance (km) Brightness Sun altitude
Rises 17:16:16 0° 350° (N) 2,936 7.2 -17.5°
Reaches altitude 10° 17:18:31 10° 349° (N) 2,021 6.4 -18.0°
Maximum altitude 17:22:59 76° 265° (W) 651 3.7 -18.8°
Drops below altitude 10° 17:27:24 10° 179° (S) 1,990 6.1 -19.6°
Sets 17:29:36 0° 178° (S) 2,887 6.9 -20.0°
